When you browse on this site, cookies collect data to enhance your experience and personalize the content and advertising you see.
Visit our Privacy Policy to learn more. By continuing to use the site, you agree to this use of cookies and data.
  • En España
  • Lista de países
  • Para 7 días
  • Temperatura del agua
  • El tiempo en el mapa
  • Informadores
  • user-avatar
    Iniciar sesión

    Tiempo cada hora Ghanzi

    Hoy, 20 Febrero, Jueves

    Tiempo Temperatura Precipitaciones Viento Presión Humedad
    00:00 +11°C° 0 mm 4 mps 719 mmHg 39%
    01:00 +10°C° 0 mm 4 mps 719 mmHg 41%
    02:00 +10°C° 0 mm 4 mps 718 mmHg 44%
    03:00 +8°C° 0 mm 4 mps 718 mmHg 47%
    04:00 +7°C° 0 mm 4 mps 718 mmHg 51%
    05:00 +7°C° 0 mm 4 mps 719 mmHg 51%
    06:00 +9°C° 0 mm 3 mps 719 mmHg 52%
    07:00 +9°C° 0 mm 3 mps 720 mmHg 51%
    08:00 +12°C° 0 mm 3 mps 720 mmHg 44%
    09:00 +14°C° 0 mm 4 mps 720 mmHg 36%
    10:00 +18°C° 0 mm 4 mps 720 mmHg 29%
    11:00 +19°C° 0 mm 3 mps 720 mmHg 26%
    12:00 +21°C° 0 mm 2 mps 719 mmHg 22%
    13:00 +23°C° 0 mm 2 mps 718 mmHg 20%
    14:00 +23°C° 0 mm 2 mps 718 mmHg 18%
    15:00 +24°C° 0 mm 2 mps 717 mmHg 17%
    16:00 +24°C° 0 mm 3 mps 717 mmHg 16%
    17:00 +21°C° 0 mm 3 mps 717 mmHg 18%
    18:00 +20°C° 0 mm 4 mps 717 mmHg 21%
    19:00 +18°C° 0 mm 4 mps 717 mmHg 23%
    20:00 +17°C° 0 mm 4 mps 717 mmHg 24%
    21:00 +15°C° 0 mm 4 mps 718 mmHg 25%
    22:00 +14°C° 0 mm 4 mps 718 mmHg 27%
    23:00 +14°C° 0 mm 4 mps 718 mmHg 28%

    Mañana, 21 Febrero, Viernes

    Tiempo Temperatura Precipitaciones Viento Presión Humedad
    00:00 +13°C° 0 mm 4 mps 717 mmHg 30%
    01:00 +12°C° 0 mm 4 mps 717 mmHg 32%
    02:00 +12°C° 0 mm 4 mps 717 mmHg 33%
    03:00 +11°C° 0 mm 4 mps 717 mmHg 35%
    04:00 +10°C° 0 mm 3 mps 717 mmHg 37%
    05:00 +10°C° 0 mm 3 mps 717 mmHg 37%
    06:00 +10°C° 0 mm 3 mps 718 mmHg 38%
    07:00 +10°C° 0 mm 3 mps 718 mmHg 38%
    14:00 +23°C° 0 mm 4 mps 718 mmHg 17%
    15:00 +23°C° 0 mm 5 mps 718 mmHg 17%
    16:00 +25°C° 0 mm 5 mps 718 mmHg 16%
    17:00 +22°C° 0 mm 5 mps 718 mmHg 19%
    18:00 +20°C° 0 mm 4 mps 718 mmHg 21%
    19:00 +18°C° 0 mm 4 mps 718 mmHg 24%
    20:00 +18°C° 0 mm 4 mps 718 mmHg 25%
    21:00 +16°C° 0 mm 5 mps 718 mmHg 27%
    22:00 +16°C° 0 mm 5 mps 719 mmHg 28%
    23:00 +15°C° 0 mm 5 mps 719 mmHg 31%

    Pasado mañana, 22 Febrero, Sábado

    Tiempo Temperatura Precipitaciones Viento Presión Humedad
    00:00 +14°C° 0 mm 5 mps 718 mmHg 35%
    01:00 +13°C° 0 mm 5 mps 718 mmHg 38%
    02:00 +12°C° 0 mm 5 mps 718 mmHg 42%
    03:00 +10°C° 0 mm 5 mps 718 mmHg 46%
    04:00 +11°C° 0 mm 4 mps 718 mmHg 50%
    05:00 +11°C° 0 mm 4 mps 718 mmHg 52%
    06:00 +10°C° 0 mm 4 mps 719 mmHg 53%
    07:00 +10°C° 0 mm 4 mps 719 mmHg 55%
    08:00 +13°C° 0 mm 5 mps 720 mmHg 48%
    09:00 +15°C° 0 mm 6 mps 721 mmHg 41%
    10:00 +19°C° 0 mm 6 mps 721 mmHg 34%
    11:00 +20°C° 0 mm 6 mps 720 mmHg 30%
    12:00 +21°C° 0 mm 5 mps 720 mmHg 26%
    13:00 +22°C° 0 mm 5 mps 719 mmHg 22%
    14:00 +22°C° 0 mm 5 mps 719 mmHg 21%
    15:00 +22°C° 0 mm 5 mps 718 mmHg 21%
    16:00 +22°C° 0 mm 6 mps 718 mmHg 20%
    17:00 +21°C° 0 mm 5 mps 718 mmHg 22%
    18:00 +19°C° 0 mm 5 mps 719 mmHg 25%
    19:00 +18°C° 0 mm 4 mps 719 mmHg 28%
    20:00 +17°C° 0 mm 4 mps 719 mmHg 30%
    21:00 +15°C° 0 mm 4 mps 719 mmHg 32%
    22:00 +15°C° 0 mm 4 mps 719 mmHg 34%
    23:00 +14°C° 0 mm 5 mps 719 mmHg 37%

    23 Febrero, Domingo

    Tiempo Temperatura Precipitaciones Viento Presión Humedad
    00:00 +13°C° 0 mm 5 mps 719 mmHg 40%
    01:00 +13°C° 0 mm 5 mps 719 mmHg 43%
    02:00 +12°C° 0 mm 5 mps 719 mmHg 44%
    03:00 +10°C° 0 mm 5 mps 719 mmHg 46%
    04:00 +10°C° 0 mm 5 mps 719 mmHg 47%
    05:00 +10°C° 0 mm 6 mps 719 mmHg 43%
    06:00 +10°C° 0 mm 6 mps 720 mmHg 39%
    07:00 +10°C° 0 mm 6 mps 720 mmHg 36%
    08:00 +12°C° 0 mm 7 mps 721 mmHg 32%
    09:00 +14°C° 0 mm 7 mps 721 mmHg 29%
    10:00 +16°C° 0 mm 7 mps 722 mmHg 26%
    11:00 +17°C° 0 mm 7 mps 721 mmHg 24%
    12:00 +18°C° 0 mm 7 mps 720 mmHg 23%
    13:00 +20°C° 0 mm 7 mps 720 mmHg 21%
    14:00 +20°C° 0 mm 7 mps 719 mmHg 20%
    15:00 +20°C° 0 mm 7 mps 719 mmHg 20%
    16:00 +20°C° 0 mm 7 mps 719 mmHg 19%
    17:00 +18°C° 0 mm 7 mps 719 mmHg 22%
    18:00 +16°C° 0 mm 6 mps 719 mmHg 25%
    19:00 +14°C° 0 mm 6 mps 719 mmHg 28%
    20:00 +14°C° 0 mm 6 mps 720 mmHg 33%
    21:00 +13°C° 0 mm 6 mps 720 mmHg 37%
    22:00 +11°C° 0 mm 6 mps 721 mmHg 42%
    23:00 +10°C° 0 mm 6 mps 720 mmHg 45%

    24 Febrero, Lunes

    Tiempo Temperatura Precipitaciones Viento Presión Humedad
    00:00 +9°C° 0 mm 5 mps 720 mmHg 49%
    01:00 +8°C° 0 mm 5 mps 720 mmHg 53%
    02:00 +8°C° 0 mm 5 mps 720 mmHg 57%
    03:00 +7°C° 0 mm 5 mps 720 mmHg 62%
    04:00 +7°C° 0 mm 5 mps 720 mmHg 67%
    05:00 +7°C° 0 mm 5 mps 721 mmHg 68%
    06:00 +7°C° 0 mm 5 mps 721 mmHg 70%
    07:00 +6°C° 0 mm 5 mps 722 mmHg 71%
    08:00 +9°C° 0 mm 6 mps 722 mmHg 60%
    09:00 +11°C° 0 mm 7 mps 722 mmHg 49%
    10:00 +14°C° 0 mm 7 mps 723 mmHg 38%
    11:00 +15°C° 0 mm 7 mps 722 mmHg 32%
    12:00 +16°C° 0 mm 7 mps 721 mmHg 26%
    13:00 +18°C° 0 mm 7 mps 720 mmHg 20%
    14:00 +18°C° 0 mm 7 mps 720 mmHg 20%
    15:00 +18°C° 0 mm 7 mps 719 mmHg 19%
    16:00 +18°C° 0 mm 7 mps 719 mmHg 19%
    17:00 +16°C° 0 mm 6 mps 719 mmHg 22%
    18:00 +14°C° 0 mm 6 mps 720 mmHg 25%
    19:00 +13°C° 0 mm 5 mps 720 mmHg 28%
    20:00 +12°C° 0 mm 5 mps 720 mmHg 29%
    21:00 +10°C° 0 mm 5 mps 720 mmHg 29%
    22:00 +9°C° 0 mm 5 mps 721 mmHg 30%
    23:00 +8°C° 0 mm 5 mps 721 mmHg 31%

    25 Febrero, Martes

    Tiempo Temperatura Precipitaciones Viento Presión Humedad
    00:00 +8°C° 0 mm 5 mps 720 mmHg 32%
    01:00 +7°C° 0 mm 5 mps 720 mmHg 34%
    02:00 +6°C° 0 mm 5 mps 720 mmHg 35%
    03:00 +6°C° 0 mm 4 mps 720 mmHg 36%
    04:00 +6°C° 0 mm 4 mps 720 mmHg 38%
    05:00 +6°C° 0 mm 4 mps 721 mmHg 38%
    06:00 +6°C° 0 mm 4 mps 721 mmHg 38%
    07:00 +7°C° 0 mm 3 mps 721 mmHg 38%
    08:00 +9°C° 0 mm 3 mps 721 mmHg 34%
    09:00 +12°C° 0 mm 4 mps 722 mmHg 29%
    10:00 +15°C° 0 mm 4 mps 722 mmHg 24%
    11:00 +17°C° 0 mm 4 mps 721 mmHg 21%
    12:00 +19°C° 0 mm 4 mps 720 mmHg 19%
    13:00 +20°C° 0 mm 3 mps 720 mmHg 16%
    14:00 +21°C° 0 mm 4 mps 719 mmHg 15%
    15:00 +21°C° 0 mm 4 mps 719 mmHg 14%
    16:00 +21°C° 0 mm 5 mps 719 mmHg 13%
    17:00 +19°C° 0 mm 4 mps 719 mmHg 16%
    18:00 +18°C° 0 mm 4 mps 718 mmHg 18%
    19:00 +15°C° 0 mm 4 mps 718 mmHg 20%
    20:00 +14°C° 0 mm 4 mps 719 mmHg 21%
    21:00 +13°C° 0 mm 4 mps 719 mmHg 22%
    22:00 +13°C° 0 mm 4 mps 719 mmHg 24%
    23:00 +12°C° 0 mm 4 mps 719 mmHg 25%
    Mostrar más